Tracking 27405 objects as of 1-Jun-2023
HD Live streaming from Space Station
objects crossing your sky now

SL-12 DEB

Track SL-12 DEB now!
10-day predictions


NORAD ID: 12854
Int'l Code: 1970-103G
Perigee: 1,109.6 km
Apogee: 1,988.4 km
Inclination: 50.3 °
Period: 116.9 minutes
Semi major axis: 7919 km
RCS: 0.1767 m2 (medium)
Launch date: December 2, 1970
Source: Commonwealth of Independent States (former USSR) (CIS)
Launch site: TYURATAM MISSILE AND SPACE COMPLEX (TTMTR)

Note: This is SATELLITE DEBRIS
Your satellite tracking list
Your tracking list is empty




NASA's NSSDC Master Catalog

Two Line Element Set (TLE):
1 12854U 70103G   23152.36441802  .00083070  00000-0  40982+0 0  9992
2 12854  50.2915 222.1165 0554786 251.7473 102.2243 12.31736190 55251
Source of the keplerian elements: AFSPC